[[{"header":{"parameterUnit":"m.s-1","parameterCategory":1,"la1":30.2991,"la2":30.254,"lo1":-89.0895,"lo2":-89.0444,"dy":0.0017,"dx":0.0017,"nx":28,"ny":28,"refTime":"2024-06-28T21:00:00:Z","depth":0,"parameterNumber":2,"parameterNumberName":"U-component_of_WINDS"},"data":[0,0,0,0,0,0,0,0,0,0,0,0,0,0,0,0,0,0,0,0,0,0,0,0,0,0,0,0,0,0,0,0,0,0,0,0,0,0,0,0,0,0,0,0,0,0,0,0,0,0,0,0,0,0,0,0,0,0,2.2954,2.2955,0,2.3001,2.3001,2.3002,2.2972,2.297,2.2969,2.2968,2.3018,2.302,2.3023,0,0,0,0,0,0,0,0,0,0,0,0,0,2.2841,2.2844,2.2954,2.2955,2.2955,2.3001,2.3001,2.3002,2.2972,2.297,2.2969,2.2967,2.3017,2.302,2.3023,0,0,0,0,0,0,0,0,0,0,0,0,0,2.289,2.2844,2.2954,2.2946,2.2946,2.3001,2.3001,2.3002,2.2972,2.297,2.2968,2.2966,2.3016,2.302,2.3024,2.309,0,0,2.3036,2.3038,0,0,0,0,0,0,0,0,2.2887,2.2894,2.2946,2.2946,2.2946,2.2978,2.298,2.3032,2.2973,2.2962,2.2968,2.2965,2.3007,2.3011,2.3025,2.3093,2.3095,2.3036,2.3039,2.304,2.3041,0,0,0,0,0,0,0,2.2884,2.2892,2.2973,2.2947,2.2947,2.294,2.2945,2.299,2.2996,2.2963,2.2961,2.2967,2.3006,2.3021,2.3026,2.3095,2.3036,2.304,2.3042,2.3044,2.322,2.3222,0,0,0,0,0,0,2.2881,2.2889,2.2971,2.2974,2.2911,2.2944,2.2949,2.297,2.2995,2.2997,2.2968,2.2965,2.3015,2.3021,2.3027,2.3106,2.304,2.3044,2.3046,2.3218,2.3221,2.3223,0,0,0,0,0,0,2.2878,2.2888,2.2969,2.2931,2.2941,2.2948,2.2972,2.2972,2.2987,2.2999,2.3,2.2982,2.3014,2.3022,2.3074,2.3107,2.3046,2.3049,2.3215,2.3219,2.3222,2.3265,0,0,0,0,0,0,2.2875,2.2888,2.2912,2.2932,2.2943,2.3015,2.2974,2.2975,2.2993,2.2989,2.3012,2.3014,2.3013,2.3069,2.3078,2.3112,2.3052,2.3212,2.3217,2.3221,2.326,2.3269,2.3277,0,0,0,0,0,2.2871,2.2923,2.2914,2.2924,2.2974,2.3017,2.3024,2.302,2.2996,2.3021,2.3029,2.3013,2.3102,2.3074,2.3085,2.312,2.321,2.3215,2.322,2.3257,2.3267,2.3276,0,0,0,0,0,0,2.2908,2.2926,2.2915,2.2975,2.2995,2.3012,2.3044,2.3032,2.3059,2.3054,2.305,2.3055,2.311,2.3121,2.3089,2.3186,2.3153,2.316,2.3176,2.3187,2.3195,2.3191,2.3056,0,0,0,0,0,2.2923,2.2956,2.297,2.3021,2.3032,2.3036,2.3055,2.305,2.3071,2.3079,2.3091,2.3112,2.3145,2.3167,2.3198,2.3262,2.3266,2.3291,2.33,2.3306,2.3313,2.3347,2.3358,2.324,2.324,2.324,0,0,2.2955,2.2968,2.2989,2.3029,2.3044,2.3078,2.3043,2.3082,2.3107,2.3085,2.3135,2.3145,2.3169,2.3227,2.3254,2.3238,2.3346,2.3313,2.3318,2.3321,2.3354,2.3365,2.3375,2.3244,2.3243,2.3242,0,0,2.3029,2.3043,2.3087,2.3102,2.3125,2.3128,2.3138,2.3158,2.3163,2.3213,2.3197,2.3228,2.3285,2.3302,2.3318,2.34,2.3386,2.341,2.3452,2.3486,2.3495,2.3503,2.3532,2.3542,2.3416,2.3417,2.3417,0,2.3066,2.3116,2.3111,2.315,2.3168,2.3149,2.3194,2.321,2.3242,2.3255,2.3236,2.3306,2.3321,2.3383,2.3403,2.3417,2.3429,2.3407,2.3494,2.3502,2.351,2.3537,2.3548,2.3419,2.3419,2.3419,2.3418,0,2.316,2.3195,2.3228,2.3258,2.328,2.3322,2.3324,2.3347,2.334,2.3345,2.3397,2.3414,2.3447,2.3462,2.3457,2.3524,2.3513,2.3495,2.3461,2.3524,2.3549,2.356,2.3423,2.3422,2.3421,2.3421,0,0,2.3258,2.3285,2.3297,2.331,2.3334,2.3362,2.3403,2.3435,2.3454,2.3478,2.3512,2.356,2.3543,2.3562,2.3559,2.3588,2.3651,2.3566,2.3567,2.358,2.3725,2.3738,2.375,2.3642,2.3644,2.3646,2.3723,0,2.3333,2.3404,2.3401,2.3467,2.35,2.3483,2.3519,2.3538,2.3544,2.3573,2.358,2.3614,2.3589,2.36,2.3629,2.3637,2.368,2.3632,2.3674,2.3676,2.3668,2.3763,2.3777,2.3848,2.3733,2.3734,2.3735,0,2.343,2.3455,2.3525,2.3543,2.3557,2.3589,2.3618,2.3646,2.3668,2.367,2.369,2.3682,2.3725,2.3691,2.3749,2.3717,2.3734,2.3741,2.3744,2.3747,2.3709,2.3768,2.3871,2.3881,2.3751,2.375,2.3749,0,2.3494,2.3545,2.3593,2.3606,2.3629,2.3652,2.3662,2.3682,2.3701,2.3727,2.3739,2.377,2.3787,2.3812,2.3812,2.3788,2.3871,2.3837,2.3874,2.3874,2.3891,2.389,2.3998,2.3905,2.3905,2.3904,2.3904,0,2.3578,2.3621,2.3622,2.3652,2.3699,2.3696,2.3743,2.3752,2.3769,2.3801,2.3789,2.3818,2.3818,2.3848,2.385,2.3897,2.3905,2.3909,2.3908,2.3909,2.3908,2.392,2.3914,2.3907,2.3907,2.3906,2.3906,0,2.3656,2.3659,2.371,2.3728,2.3733,2.3767,2.3783,2.3811,2.3816,2.3856,2.3865,2.3873,2.3908,2.3912,2.3953,2.3954,2.4011,2.4006,2.4004,2.4002,2.4038,2.4035,2.4156,2.4172,2.4069,2.407,2.4071,0,2.3709,2.3741,2.3762,2.3782,2.3793,2.3826,2.3845,2.3843,2.3864,2.3891,2.3916,2.395,2.3977,2.4034,2.4044,2.4076,2.4071,2.4111,2.4075,2.4075,2.407,2.4068,2.4071,2.4118,2.4119,2.412,2.4121,0,2.3801,2.3801,2.3829,2.3858,2.3882,2.3905,2.3926,2.3943,2.3944,2.3968,2.4003,2.4024,2.4066,2.41,2.4131,2.4143,2.4132,2.4132,2.4142,2.4143,2.4139,2.4141,2.4021,2.4129,2.4128,2.4127,2.4127,2.4127,2.3868,2.3896,2.3915,2.3946,2.3962,2.3982,2.401,2.4018,2.4047,2.408,2.4078,2.4117,2.4138,2.4178,2.4192,2.4223,2.421,2.4224,2.4228,2.4231,2.4234,2.4135,2.4229,2.4229,2.4229,2.4228,2.4228,0,2.3959,2.397,2.4,2.4029,2.4055,2.4042,2.4065,2.4087,2.4121,2.4141,2.4168,2.4208,2.4241,2.4254,2.4286,2.4308,2.4304,2.4317,2.4315,2.4318,2.4245,2.4233,2.432,2.432,2.432,2.432,2.432,2.432,2.4009,2.4056,2.4058,2.4112,2.4123,2.416,2.4175,2.4193,2.4209,2.4255,2.4282,2.429,2.4307,2.434,2.437,2.4373,2.4385,2.4399,2.44,2.4332,2.4323,2.4314,2.4302,2.4402,2.4402,2.447,2.447,2.4471]},{"header":{"parameterUnit":"m.s-1","parameterCategory":1,"la1":30.2991,"la2":30.254,"lo1":-89.0895,"lo2":-89.0444,"dy":0.0017,"dx":0.0017,"nx":28,"ny":28,"refTime":"2024-06-28T21:00:00:Z","depth":0,"parameterNumber":3,"parameterNumberName":"V-component_of_WINDS"},"data":[0,0,0,0,0,0,0,0,0,0,0,0,0,0,0,0,0,0,0,0,0,0,0,0,0,0,0,0,0,0,0,0,0,0,0,0,0,0,0,0,0,0,0,0,0,0,0,0,0,0,0,0,0,0,0,0,0,0,3.8914,3.8917,0,3.9165,3.9168,3.917,3.9222,3.922,3.9219,3.9217,3.9471,3.9479,3.9488,0,0,0,0,0,0,0,0,0,0,0,0,0,3.8479,3.8487,3.8914,3.8917,3.892,3.9164,3.9168,3.9171,3.9223,3.922,3.9218,3.9216,3.9468,3.9478,3.9488,0,0,0,0,0,0,0,0,0,0,0,0,0,3.8693,3.8489,3.8913,3.8975,3.8984,3.9164,3.9168,3.9172,3.9223,3.922,3.9217,3.9215,3.9465,3.9477,3.949,3.9625,0,0,3.9529,3.9534,0,0,0,0,0,0,0,0,3.868,3.8709,3.8963,3.8972,3.8981,3.9159,3.9108,3.9324,3.9224,3.9132,3.9217,3.9213,3.9369,3.939,3.9443,3.9637,3.9648,3.953,3.9538,3.9543,3.9547,0,0,0,0,0,0,0,3.8666,3.8698,3.9013,3.8967,3.8978,3.899,3.9018,3.9149,3.9263,3.914,3.9144,3.9173,3.9374,3.943,3.9449,3.9652,3.953,3.9541,3.9549,3.9554,3.9971,3.9974,0,0,0,0,0,0,3.864,3.8685,3.9005,3.9021,3.8821,3.9001,3.9031,3.9105,3.9262,3.9283,3.9175,3.9175,3.941,3.9434,3.9458,3.9629,3.9543,3.9555,3.9562,3.9968,3.9972,3.9976,0,0,0,0,0,0,3.8631,3.8668,3.8995,3.8854,3.8897,3.9011,3.9094,3.9111,3.9168,3.9289,3.931,3.9213,3.9409,3.944,3.9584,3.9638,3.9561,3.9572,3.9964,3.9969,3.9974,3.9969,0,0,0,0,0,0,3.8618,3.8664,3.8717,3.8855,3.8904,3.9117,3.9097,3.9118,3.9191,3.9192,3.9329,3.9349,3.9409,3.9565,3.9597,3.9654,3.9582,3.9959,3.9966,3.9972,3.9965,3.9973,3.9981,0,0,0,0,0,3.8602,3.8705,3.8719,3.8758,3.8973,3.912,3.9148,3.9215,3.9195,3.9249,3.9327,3.9345,3.9627,3.9579,3.9615,3.9678,3.9956,3.9964,3.9972,3.9961,3.9972,3.9981,0,0,0,0,0,0,3.8569,3.8724,3.8742,3.8892,3.8993,3.9128,3.9198,3.9224,3.9331,3.9328,3.9406,3.9436,3.9576,3.9641,3.9585,3.9818,3.9791,3.9806,3.977,3.9781,3.9789,3.977,3.9593,0,0,0,0,0,3.8579,3.8686,3.8816,3.8936,3.8985,3.9083,3.915,3.9193,3.93,3.9342,3.943,3.9532,3.9644,3.9716,3.9826,3.9975,4.0006,4.0036,4.0043,4.0049,4.0062,4.0147,4.0162,4.0001,4.0001,4.0001,0,0,3.8601,3.8699,3.8762,3.8932,3.9015,3.9124,3.9118,3.9233,3.9315,3.9359,3.9501,3.9569,3.9688,3.9835,3.9905,3.9894,4.0113,4.0059,4.0063,4.0073,4.0156,4.0172,4.0185,4.0006,4.0005,4.0004,0,0,3.8697,3.8782,3.8892,3.8976,3.9102,3.9166,3.9193,3.9326,3.9373,3.9517,3.9552,3.965,3.9841,3.9925,3.9993,4.0123,4.0144,4.0156,4.0197,4.0279,4.0292,4.0304,4.0351,4.0367,4.0168,4.0168,4.0168,0,3.8709,3.8875,3.8945,3.906,3.9134,3.9181,3.9293,3.937,3.9525,3.9575,3.9561,3.9803,3.9886,4.0055,4.0087,4.0139,4.0173,4.0141,4.0285,4.0297,4.0309,4.0355,4.0373,4.0168,4.0168,4.0168,4.0168,0,3.8883,3.8998,3.9072,3.9222,3.9305,3.9417,3.9505,3.958,3.9616,3.9682,3.9828,3.993,4.0062,4.0105,4.0141,4.0279,4.0269,4.0269,4.0243,4.0324,4.0369,4.0387,4.017,4.0169,4.0169,4.0169,0,0,3.8965,3.9154,3.918,3.9249,3.9392,3.9482,3.9597,3.9728,3.9791,3.9896,3.9995,4.0156,4.0158,4.0234,4.028,4.0352,4.0451,4.0344,4.0348,4.0361,4.0611,4.061,4.063,4.0466,4.0469,4.0472,4.0601,0,3.9079,3.9287,3.9355,3.9528,3.9636,3.9682,3.9782,3.9881,3.9946,4.0047,4.0118,4.0232,4.0224,4.0271,4.0345,4.0423,4.0502,4.0414,4.0559,4.0563,4.0528,4.0653,4.0653,4.0769,4.0619,4.0622,4.0624,0,3.924,3.935,3.9534,3.9665,3.9713,3.9802,3.9928,4.0023,4.0136,4.0179,4.0265,4.0306,4.0429,4.0395,4.0565,4.0505,4.0568,4.0615,4.0621,4.0638,4.0599,4.0674,4.0808,4.0826,4.0652,4.065,4.0648,0,3.9282,3.9476,3.9612,3.9669,3.9826,3.9888,3.9955,4.0066,4.014,4.025,4.0299,4.0421,4.0487,4.0581,4.0653,4.0622,4.0818,4.079,4.0856,4.0855,4.0896,4.0892,4.1043,4.0935,4.0934,4.0934,4.0934,0,3.9403,3.9514,3.9633,3.9717,3.9843,3.992,4.0042,4.0113,4.0211,4.0309,4.0356,4.0447,4.0537,4.064,4.0697,4.083,4.086,4.0897,4.0912,4.0894,4.0889,4.0937,4.0931,4.0939,4.0938,4.0937,4.0936,0,3.9471,3.9555,3.9707,3.9843,3.988,3.9967,4.0084,4.0167,4.0234,4.0358,4.0391,4.0497,4.0621,4.0703,4.086,4.0899,4.1044,4.1056,4.1006,4.1013,4.1075,4.1069,4.1263,4.1293,4.1163,4.1164,4.1165,0,3.9543,3.963,3.9776,3.9846,3.9915,4.0026,4.0103,4.0182,4.026,4.0397,4.0464,4.0591,4.0697,4.0892,4.0983,4.1104,4.112,4.1179,4.1138,4.1118,4.1122,4.1116,4.1126,4.1186,4.1187,4.1187,4.1188,0,3.9662,3.97,3.9809,3.9934,4.0025,4.0127,4.0228,4.0283,4.038,4.0465,4.0593,4.0675,4.0837,4.0963,4.1093,4.1163,4.1192,4.1201,4.1223,4.1206,4.1174,4.1193,4.1025,4.1196,4.1195,4.1194,4.1194,4.1194,3.9736,3.9816,3.9932,4.0053,4.0138,4.0233,4.0318,4.0397,4.0505,4.0644,4.0684,4.0818,4.093,4.1108,4.118,4.1286,4.1279,4.1311,4.1319,4.1326,4.1327,4.1157,4.1309,4.1309,4.1309,4.1309,4.1309,0,3.9858,3.9935,4.0046,4.0188,4.0283,4.0304,4.0418,4.0496,4.0614,4.0716,4.082,4.0968,4.1091,4.1192,4.1319,4.1384,4.1401,4.1415,4.1411,4.1427,4.1325,4.1294,4.1399,4.1399,4.1399,4.1399,4.1399,4.1399,3.9933,4.007,4.0122,4.0302,4.0379,4.0512,4.0575,4.0663,4.0746,4.0909,4.1012,4.1078,4.118,4.1315,4.1429,4.1455,4.15,4.1512,4.1541,4.1444,4.1434,4.1424,4.1395,4.152,4.1521,4.1635,4.1636,4.1636]}]]